Location: Bonningues
(50.7927°N, 2.0150°E)
Time: 04:37:43
(UTC+00:00)

Sich 1 Rocket - Pass Details

Date: 08 August 2020
Orbit: 617 x 651 km, 82.5° (Epoch: 23 September)

Event Time Altitude Azimuth Distance (km) Brightness Sun altitude
Exits shadow 23:55:31 38° 96° (E) 953 4.4 -23.4°
Maximum altitude 23:55:39 38° 92° (E) 951 4.4 -23.4°
Drops below altitude 10° 23:59:44 10° 24° (NNE) 1,995 7.1 -23.4°
Sets 00:02:04 0° 17° (NNE) 2,906 8.3 -23.4°
